Redstone, Alberta

7:02 AM MST on February 22, 2017 (GMT -0700)
Bow Valley

Weather History for CWXA - July, 2013

Change the Weather History Date:

Tuesday, July 30, 2013

  Actual Average Record
Temperature  
Mean Temperature 48 °F -  
Max Temperature 67 °F - - ()
Min Temperature 29 °F - - ()
Degree Days  
Heating Degree Days 17    
Moisture  
Dew Point 41 °F    
Average Humidity 77    
Maximum Humidity 98    
Minimum Humidity 43    
Precipitation  
Precipitation 0.00 in - - ()
Sea Level Pressure  
Sea Level Pressure 30.24 in    
Wind  
Wind Speed 2 mph ()    
Max Wind Speed 8 mph    
Max Gust Speed -    
T = Trace of Precipitation, MM = Missing Value Source: Averaged Metar Reports

Daily Weather History Graph

Daily Weather History Graph

Search for Another Location

Airport or City:

Trip Planner

Search our weather history database for the weather conditions in past years. The results will help you decide how hot, cold, wet, or windy it might be!

Date:

Astronomy

Jul. 30, 2013 Rise Set
Actual Time 6:03 AM MDT 9:29 PM MDT
Civil Twilight 5:22 AM MDT 10:09 PM MDT
Nautical Twilight 4:28 AM MDT 11:03 PM MDT
Astronomical Twilight 3:12 AM MDT 12:17 AM MDT
Moon 12:29 AM MDT (7/30) 3:51 PM MDT (7/30)
Length of Visible Light 16h 46m
Length of Day
15h 25m
Last Quarter, 40% of the Moon is Illuminated
Jul 30
Last Quarter
Aug 6
New
Aug 14
First Quarter
Aug 20
Full
Aug 28
Last Quarter

Hourly Weather History & Observations

Time (MDT) Temp. Windchill Dew Point Humidity Pressure Visibility Wind Dir Wind Speed Gust Speed Precip Events Conditions
12:00 AM 36 °F - 36 °F 98% 30.20 in - SSW 1.2 mph - -  
12:00 AM 36.5 °F - 35.6 °F 97% 30.20 in - SSW 1.2 mph - N/A   Unknown
1:00 AM 39.4 °F - 38.7 °F 97% 30.19 in - WSW 2.3 mph - N/A   Unknown
2:00 AM 39.7 °F 36.5 °F 39.0 °F 97% 30.21 in - WSW 4.6 mph - N/A   Unknown
3:00 AM 37.2 °F - 36.3 °F 97% 30.23 in - ESE 2.3 mph - N/A   Unknown
4:00 AM 33.4 °F - 31.3 °F 92% 30.25 in - SW 1.2 mph - N/A   Unknown
5:00 AM 30.9 °F - 30.2 °F 97% 30.26 in - Calm Calm - N/A   Unknown
6:00 AM 30 °F - 29 °F 97% 30.28 in - WSW 1.2 mph - -  
6:00 AM 30.0 °F - 29.5 °F 98% 30.28 in - WSW 1.2 mph - N/A   Unknown
7:00 AM 31.3 °F - 30.7 °F 98% 30.29 in - Calm Calm - N/A   Unknown
8:00 AM 38.8 °F - 38.1 °F 97% 30.29 in - Calm Calm - N/A   Unknown
9:00 AM 45.0 °F 42.6 °F 41.5 °F 88% 30.28 in - West 4.6 mph - N/A   Unknown
10:00 AM 49.1 °F - 43.9 °F 82% 30.28 in - West 3.5 mph - N/A   Unknown
11:00 AM 54.0 °F - 43.2 °F 67% 30.25 in - North 2.3 mph - N/A   Unknown
12:00 PM 58 °F - 42 °F 43% 30.24 in - ESE 3.5 mph - -  
12:00 PM 57.6 °F - 41.7 °F 56% 30.24 in - ESE 3.5 mph - N/A   Unknown
1:00 PM 60.3 °F - 46.4 °F 60% 30.22 in - ENE 4.6 mph - N/A   Unknown
2:00 PM 64.0 °F - 48.7 °F 57% 30.21 in - NE 4.6 mph - N/A   Unknown
3:00 PM 64.4 °F - 47.1 °F 53% 30.22 in - NNE 4.6 mph - N/A   Unknown
4:00 PM 64.6 °F - 46.0 °F 51% 30.23 in - NNE 6.9 mph - N/A   Unknown
5:00 PM 62.1 °F - 46.8 °F 57% 30.24 in - NE 8.1 mph - N/A   Unknown
6:00 PM 62 °F - 47 °F 46% 30.25 in - NE 5.8 mph - -  
6:00 PM 61.7 °F - 46.6 °F 58% 30.25 in - NE 5.8 mph - N/A   Unknown
7:00 PM 64.0 °F - 47.8 °F 56% 30.22 in - ENE 6.9 mph - N/A   Unknown
8:00 PM 62.6 °F - 47.7 °F 58% 30.20 in - North 2.3 mph - N/A   Unknown
9:00 PM 55.8 °F - 47.7 °F 74% 30.22 in - NW 1.2 mph - N/A   Unknown
10:00 PM 47.8 °F - 44.8 °F 89% 30.24 in - SSW 1.2 mph - N/A   Unknown
11:00 PM 44.6 °F - 42.8 °F 93% 30.26 in - WSW 1.2 mph - N/A   Unknown